Time,TemperatureF,DewpointF,PressureIn,WindDirection,WindDirectionDegrees,WindSpeedMPH,WindSpeedGustMPH,Humidity,HourlyPrecipIn,Conditions,Clouds,dailyrainin,SoftwareType,DateUTC
2013-09-04 00:23:00,83.0,62.0,-100.00,North,-999,-999.0,-999.0,50,0.00,,,0.06,,2013-09-04 05:23:00,
2013-09-04 00:52:00,83.0,64.0,-100.00,North,-999,-999.0,-999.0,53,0.00,,,0.06,,2013-09-04 05:52:00,
2013-09-04 01:02:00,83.0,64.0,-100.00,North,-999,-999.0,-999.0,53,0.00,,,0.06,,2013-09-04 06:02:00,
2013-09-04 01:22:00,81.0,65.0,-100.00,North,-999,-999.0,-999.0,57,0.00,,,0.06,,2013-09-04 06:22:00,
2013-09-04 01:32:00,81.0,65.0,-100.00,North,-999,-999.0,-999.0,57,0.00,,,0.06,,2013-09-04 06:32:00,
2013-09-04 01:52:00,80.0,64.0,-100.00,North,-999,-999.0,-999.0,58,0.00,,,-99.99,,2013-09-04 06:52:00,
2013-09-04 02:02:00,80.0,64.0,-100.00,North,-999,-999.0,-999.0,58,0.00,,,-99.99,,2013-09-04 07:02:00,
2013-09-04 02:22:00,79.0,66.0,-100.00,North,-999,-999.0,-999.0,65,0.00,,,0.06,,2013-09-04 07:22:00,
2013-09-04 02:52:00,76.0,67.0,-100.00,North,-999,-999.0,-999.0,74,0.00,,,0.06,,2013-09-04 07:52:00,
2013-09-04 03:22:00,77.0,66.0,-100.00,North,-999,-999.0,-999.0,69,0.00,,,0.06,,2013-09-04 08:22:00,
2013-09-04 03:43:00,78.0,65.0,-100.00,North,-999,-999.0,-999.0,64,0.00,,,0.06,,2013-09-04 08:43:00,
2013-09-04 03:52:00,78.0,65.0,-100.00,North,-999,-999.0,-999.0,64,0.00,,,0.06,,2013-09-04 08:52:00,
2013-09-04 04:22:00,79.0,66.0,-100.00,North,-999,-999.0,-999.0,64,0.00,,,0.06,,2013-09-04 09:22:00,
2013-09-04 04:33:00,79.0,66.0,-100.00,North,-999,-999.0,-999.0,64,0.00,,,0.06,,2013-09-04 09:33:00,
2013-09-04 04:53:00,79.0,66.0,-100.00,North,-999,-999.0,-999.0,63,-99.99,,,-99.99,,2013-09-04 09:53:00,
2013-09-04 05:23:00,77.0,67.0,-100.00,North,-999,-999.0,-999.0,71,0.00,,,0.06,,2013-09-04 10:23:00,
2013-09-04 05:52:00,77.0,67.0,-100.00,North,-999,-999.0,-999.0,69,0.00,,,0.06,,2013-09-04 10:52:00,
2013-09-04 06:22:00,75.0,70.0,-100.00,North,-999,-999.0,-999.0,85,0.00,,,-99.99,,2013-09-04 11:22:00,
2013-09-04 06:42:00,74.0,72.0,-100.00,North,-999,-999.0,-999.0,92,0.00,,,0.06,,2013-09-04 11:42:00,
2013-09-04 06:51:00,74.0,72.0,-100.00,North,-999,-999.0,-999.0,92,0.00,,,0.06,,2013-09-04 11:51:00,
2013-09-04 07:21:00,74.0,70.0,-100.00,North,-999,-999.0,-999.0,90,0.01,,,0.07,,2013-09-04 12:21:00,
2013-09-04 07:52:00,74.0,70.0,-100.00,North,-999,-999.0,-999.0,89,0.00,,,0.07,,2013-09-04 12:52:00,
2013-09-04 08:01:00,74.0,70.0,-100.00,North,-999,-999.0,-999.0,89,0.00,,,0.07,,2013-09-04 13:01:00,
2013-09-04 08:21:00,75.0,70.0,-100.00,North,-999,-999.0,-999.0,85,0.00,,,-99.99,,2013-09-04 13:21:00,
2013-09-04 08:52:00,75.0,71.0,-100.00,North,-999,-999.0,-999.0,87,0.00,,,0.07,,2013-09-04 13:52:00,
2013-09-04 09:21:00,75.0,71.0,-100.00,North,-999,-999.0,-999.0,86,0.00,,,0.07,,2013-09-04 14:21:00,
2013-09-04 09:52:00,76.0,71.0,-100.00,North,-999,-999.0,-999.0,84,0.00,,,0.07,,2013-09-04 14:52:00,
2013-09-04 10:22:00,78.0,70.0,-100.00,North,-999,-999.0,-999.0,77,0.00,,,-99.99,,2013-09-04 15:22:00,
2013-09-04 10:33:00,78.0,70.0,-100.00,North,-999,-999.0,-999.0,77,0.00,,,-99.99,,2013-09-04 15:33:00,
2013-09-04 10:53:00,80.0,70.0,-100.00,North,-999,-999.0,-999.0,71,0.00,,,0.07,,2013-09-04 15:53:00,
2013-09-04 11:04:00,80.0,70.0,-100.00,North,-999,-999.0,-999.0,71,0.00,,,0.07,,2013-09-04 16:04:00,
2013-09-04 11:23:00,84.0,68.0,-100.00,North,-999,-999.0,-999.0,59,0.00,,,-99.99,,2013-09-04 16:23:00,
2013-09-04 11:43:00,83.0,69.0,-100.00,North,-999,-999.0,-999.0,63,0.00,,,0.07,,2013-09-04 16:43:00,
2013-09-04 11:53:00,83.0,69.0,-100.00,North,-999,-999.0,-999.0,63,0.00,,,0.07,,2013-09-04 16:53:00,
2013-09-04 12:23:00,84.0,70.0,-100.00,North,-999,-999.0,-999.0,62,0.00,,,0.07,,2013-09-04 17:23:00,
2013-09-04 12:52:00,86.0,70.0,-100.00,North,-999,-999.0,-999.0,58,-99.99,,,0.07,,2013-09-04 17:52:00,
2013-09-04 13:21:00,88.0,68.0,-100.00,North,-999,-999.0,-999.0,51,0.00,,,0.07,,2013-09-04 18:21:00,
2013-09-04 13:52:00,90.0,65.0,-100.00,North,-999,-999.0,-999.0,43,0.00,,,0.07,,2013-09-04 18:52:00,
2013-09-04 14:02:00,90.0,65.0,-100.00,North,-999,-999.0,-999.0,43,0.00,,,0.07,,2013-09-04 19:02:00,
2013-09-04 14:11:00,90.0,65.0,-100.00,North,-999,-999.0,-999.0,43,0.00,,,0.07,,2013-09-04 19:11:00,
2013-09-04 14:22:00,90.0,65.0,-100.00,North,-999,-999.0,-999.0,43,0.00,,,0.07,,2013-09-04 19:22:00,
2013-09-04 14:52:00,93.0,63.0,-100.00,North,-999,-999.0,-999.0,38,0.00,,,0.07,,2013-09-04 19:52:00,
2013-09-04 15:02:00,93.0,63.0,-100.00,North,-999,-999.0,-999.0,38,0.00,,,0.07,,2013-09-04 20:02:00,
2013-09-04 15:22:00,94.0,62.0,-100.00,North,-999,-999.0,-999.0,35,-99.99,,,0.02,,2013-09-04 20:22:00,
2013-09-04 15:53:00,94.0,63.0,-100.00,North,-999,-999.0,-999.0,36,0.00,,,0.02,,2013-09-04 20:53:00,
2013-09-04 16:22:00,94.0,61.0,-100.00,North,-999,-999.0,-999.0,34,0.00,,,0.02,,2013-09-04 21:22:00,
2013-09-04 16:44:00,94.0,60.0,-100.00,North,-999,-999.0,-999.0,33,0.00,,,0.02,,2013-09-04 21:44:00,
2013-09-04 16:54:00,94.0,60.0,-100.00,North,-999,-999.0,-999.0,33,0.00,,,0.02,,2013-09-04 21:54:00,
2013-09-04 17:23:00,84.0,64.0,-100.00,North,-999,-999.0,-999.0,50,0.00,,,0.02,,2013-09-04 22:23:00,
2013-09-04 17:54:00,91.0,58.0,-100.00,North,-999,-999.0,-999.0,33,0.00,,,-99.99,,2013-09-04 22:54:00,
2013-09-04 18:22:00,93.0,61.0,-100.00,North,-999,-999.0,-999.0,35,0.00,,,0.02,,2013-09-04 23:22:00,
2013-09-04 19:22:00,85.0,65.0,-100.00,North,-999,-999.0,-999.0,51,0.00,,,0.02,,2013-09-05 00:22:00,
2013-09-04 19:42:00,83.0,64.0,-100.00,North,-999,-999.0,-999.0,52,0.00,,,0.02,,2013-09-05 00:42:00,
2013-09-04 19:52:00,83.0,64.0,-100.00,North,-999,-999.0,-999.0,52,0.00,,,0.02,,2013-09-05 00:52:00,
2013-09-04 20:11:00,83.0,65.0,-100.00,North,-999,-999.0,-999.0,54,0.00,,,0.02,,2013-09-05 01:11:00,
2013-09-04 20:22:00,83.0,65.0,-100.00,North,-999,-999.0,-999.0,54,0.00,,,0.02,,2013-09-05 01:22:00,
2013-09-04 20:52:00,82.0,66.0,-100.00,North,-999,-999.0,-999.0,58,0.00,,,0.02,,2013-09-05 01:52:00,
2013-09-04 21:02:00,82.0,66.0,-100.00,North,-999,-999.0,-999.0,58,0.00,,,0.02,,2013-09-05 02:02:00,
2013-09-04 21:22:00,81.0,65.0,-100.00,North,-999,-999.0,-999.0,59,-99.99,,,0.02,,2013-09-05 02:22:00,
2013-09-04 22:22:00,79.0,67.0,-100.00,North,-999,-999.0,-999.0,66,0.00,,,-99.99,,2013-09-05 03:22:00,
2013-09-04 22:34:00,79.0,67.0,-100.00,North,-999,-999.0,-999.0,66,0.00,,,-99.99,,2013-09-05 03:34:00,
2013-09-04 22:54:00,79.0,67.0,-100.00,North,-999,-999.0,-999.0,65,0.00,,,0.02,,2013-09-05 03:54:00,
2013-09-04 23:24:00,79.0,68.0,-100.00,North,-999,-999.0,-999.0,70,0.00,,,0.01,,2013-09-05 04:24:00,
2013-09-04 23:53:00,78.0,69.0,-100.00,North,-999,-999.0,-999.0,74,0.00,,,0.01,,2013-09-05 04:53:00,